Location: Newark
(49.2191°N, 12.6671°E)
Time: 10:42:15
(UTC+00:00)

Transit 2A - Pass Details

Date: 02 February 2020
Orbit: 600 x 959 km, 66.7° (Epoch: 19 February)

Event Time Altitude Azimuth Distance (km) Brightness Sun altitude
Rises 18:27:09 0° 243° (WSW) 2,855 10.0 -23.1°
Reaches altitude 10° 18:29:35 10° 253° (WSW) 1,944 9.1 -23.5°
Maximum altitude 18:33:29 32° 318° (NW) 1,044 7.0 -24.1°
Enters shadow 18:35:23 23° 2° (N) 1,323 7.2 -24.4°
